SCP
0 0 0 1 0 0 0 0 0 0 0 0 0 0 0 0 0 0 0 0 0 0 0 0 0 0 0 0 0 0 0 0 0 0 0 0 0 0 0 0 0 0 0 0 0 0 0 0 0
0 0 0 1 0 0 0 0 0 0 0 0 0 0 0 0 0 0 0 0 0 0 0 0 0 0 0 0 0 0 0 0 0 0 0 0 0 0 0 0 0 0 0 0 0 0 0 0 0
0 0 1 0 0 0 0 0 0 0 0 0 0 0 0 0 0 0 0 0 0 0 0 0 0 0 0 0 0 0 0 0 0 0 0 0 0 0 0 0 0 0 0 0 0 0 0 0 0
1 1 0 0 0 0 0 0 0 0 0 0 0 0 0 0 0 0 0 0 0 0 0 0 0 0 0 0 0 0 0 0 0 0 0 0 0 0 0 0 0 0 0 0 0 0 0 0 0
1 1 0 0 0 0 0 0 0 0 0 0 0 0 0 0 0 0 0 0 0 0 0 0 0 0 0 0 0 0 0 0 0 0 0 0 0 0 0 0 0 0 0 0 0 0 0 0 0
1 0 0 0 0 0 0 0 0 0 0 0 0 0 0 0 0 0 0 0 0 0 0 0 0 0 0 0 0 0 0 0 0 0 0 0 0 0 0 0 0 0 0 0 0 0 0 0 0
1 0 0 0 0 0 0 0 0 0 0 0 0 0 0 0 0 0 0 0 0 0 0 0 0 0 0 0 0 0 0 0 0 0 0 0 0 0 0 0 0 0 0 0 0 0 0 0 0
0 0 0 0 0 0 0 0 0 0 0 0 0 0 0 0 0 0 0 0 0 0 0 0 0 0 0 0 0 0 0 0 0 0 0 0 0 0 0 0 0 0 0 0 0 0 0 0 0
0 0 0 0 0 0 0 0 0 0 0 0 0 0 0 0 0 0 0 0 0 0 0 0 0 0 0 0 0 0 0 0 0 0 0 0 0 0 0 0 0 0 0 0 0 0 0 0 0
0 0 0 0 0 0 0 0 0 0 0 0 0 0 0 0 0 0 0 0 0 0 0 0 0 0 0 0 0 0 0 0 0 0 0 0 0 0 0 0 0 0 0 0 0 0 0 0 0
0 0 0 0 0 0 0 0 0 0 0 0 0 0 0 0 0 0 0 0 0 0 0 0 0 0 0 0 0 0 0 0 0 0 0 0 0 0 0 0 0 0 0 0 0 0 0 0 0
0 0 0 0 0 0 0 0 0 0 0 0 0 0 0 0 0 0 0 0 0 0 0 0 0 0 0 0 0 0 0 0 0 0 0 0 0 0 0 0 0 0 0 0 0 0 0 0 0
0 0 0 0 0 0 0 0 0 0 0 0 0 0 0 0 0 0 0 0 0 0 0 0 0 0 0 0 0 0 0 0 0 0 0 0 0 0 0 0 0 0 0 0 0 0 0 0 0
0 0 0 0 0 0 0 0 0 0 0 0 0 0 0 0 0 0 0 0 0 0 0 0 0 0 0 0 0 0 0 0 0 0 0 0 0 0 0 0 0 0 0 0 0 0 0 0 0
0 0 0 0 0 0 0 0 0 0 0 0 0 0 0 0 0 0 0 0 0 0 0 0 0 0 0 0 0 0 0 0 0 0 0 0 0 0 0 0 0 0 0 0 0 0 0 0 0
0 0 0 0 0 0 0 0 0 0 0 0 0 0 0 0 0 0 0 0 0 0 1 0 0 0 0 0 0 0 0 0 0 0 0 0 0 0 0 0 0 0 0 0 0 0 0 0 0
0 0 0 0 0 0 0 0 0 0 0 0 0 0 0 0 0 0 0 0 1 1 1 0 0 0 0 0 0 0 0 0 0 0 0 0 0 0 0 0 0 0 0 0 0 0 0 0 0
0 0 0 0 0 0 0 0 0 0 0 0 0 0 0 0 0 0 0 1 1 1 1 1 0 0 0 0 0 0 0 0 0 0 0 0 0 0 0 0 0 0 0 0 0 0 0 0 0
0 0 0 0 0 0 0 0 0 0 0 0 0 0 0 0 0 1 1 1 1 1 1 1 1 1 1 0 0 0 0 0 0 0 1 0 0 0 0 0 0 0 0 0 0 0 0 0 0
0 0 0 0 0 0 0 0 0 0 0 0 0 0 0 0 1 1 1 1 1 1 1 1 1 1 1 1 0 0 0 0 0 0 1 1 0 0 0 0 0 0 0 0 0 0 0 0 0
0 0 0 0 0 0 0 0 0 0 0 0 0 0 0 0 1 1 1 1 1 1 1 1 1 1 1 1 1 0 0 0 0 1 1 1 1 1 0 0 0 0 0 0 0 0 0 0 0
0 0 0 0 0 0 0 0 0 0 0 0 0 0 0 0 1 1 1 1 1 1 1 1 1 1 1 1 1 1 0 0 0 1 1 1 1 1 1 1 1 0 0 0 0 0 0 0 0
0 0 0 0 0 0 0 0 0 0 0 0 0 0 0 0 1 1 1 1 1 1 1 1 2 2 1 1 1 1 1 0 0 1 1 1 1 1 1 1 1 1 1 0 0 0 0 0 0
0 0 0 0 0 0 0 0 0 0 0 0 0 0 0 1 1 1 1 1 1 1 1 1 2 2 2 1 1 1 1 1 1 1 1 1 1 1 1 1 1 1 1 1 1 1 1 1 0
0 0 0 0 0 0 0 0 0 0 0 0 0 0 1 1 1 1 1 1 1 1 1 1 2 2 2 2 1 1 1 1 1 1 1 1 1 1 1 1 1 1 1 1 1 1 1 1 1
0 0 0 0 0 0 0 0 0 0 0 0 0 0 1 1 1 1 1 1 1 2 2 2 2 2 2 2 2 1 1 1 1 1 1 1 1 1 1 1 1 1 1 1 1 1 1 1 1
0 0 0 0 0 0 0 0 0 0 0 0 0 0 1 1 1 1 1 1 2 2 2 2 2 2 2 2 2 1 1 1 1 1 1 1 1 1 1 1 1 1 1 1 1 1 1 1 1
0 0 0 0 0 0 0 0 0 0 0 0 0 0 1 1 1 1 1 1 2 2 2 2 2 2 2 2 2 1 1 1 1 1 1 1 1 1 1 1 1 1 1 1 1 1 1 1 1
0 0 0 0 0 0 0 0 0 0 0 0 0 1 1 1 1 1 1 1 1 2 2 2 2 2 2 2 2 1 1 1 1 1 1 1 1 1 1 1 1 1 1 1 1 1 1 1 1
0 0 0 0 0 0 0 0 0 1 1 1 1 1 1 1 1 1 1 1 1 1 2 2 2 2 2 2 2 2 1 1 1 1 1 1 1 1 1 1 1 1 1 1 1 1 1 1 1
Wind_Speed
9 11 9 6 4 1 10 13 13 12 13 13 13 14 15 15 11 12 9 13 15 15 13 13 14 14 13 13 13 13 13 13 13 12 12 12 12 12 11 11 11 11 11 10 9 9 9 8 8
9 11 8 4 1 6 12 12 13 12 11 11 13 15 16 16 15 12 11 12 14 15 13 13 14 13 13 13 12 12 12 12 12 12 12 12 11 11 11 11 11 11 10 9 8 8 8 7 7
11 12 6 3 4 9 12 12 11 11 11 11 13 13 12 11 12 10 12 13 14 14 14 13 14 14 13 12 12 12 11 11 11 11 11 11 11 11 11 10 10 10 9 8 8 7 7 6 6
8 6 5 2 10 12 13 12 11 11 10 11 12 12 11 10 11 13 14 13 15 15 14 13 14 13 13 12 11 11 11 10 10 10 10 10 10 10 10 9 9 8 8 7 7 6 5 5 4
8 5 2 7 11 11 11 12 11 11 11 13 15 14 13 12 14 15 12 13 14 14 14 13 13 13 12 12 11 11 10 9 9 9 9 9 9 8 8 8 8 7 7 6 5 5 5 4 3
5 3 3 8 10 11 11 11 12 11 11 13 14 14 11 12 13 13 12 11 13 15 14 12 13 13 12 11 11 10 9 9 8 8 8 7 7 7 7 6 6 6 5 5 4 4 4 3 2
5 1 5 9 9 10 11 10 12 10 11 11 12 13 11 11 12 12 11 10 11 13 13 11 11 11 11 11 10 9 9 8 8 7 7 6 6 7 6 6 5 5 4 4 4 3 3 3 3
2 2 5 8 9 10 11 11 12 11 11 10 10 11 11 12 12 12 11 10 9 9 10 11 10 10 10 9 10 10 9 8 7 7 6 6 6 7 7 6 5 4 4 4 4 4 4 4 4
1 3 5 8 8 9 10 11 12 11 11 11 12 15 16 16 14 13 11 9 8 8 8 9 9 9 9 9 10 9 9 8 7 6 6 6 4 5 5 5 6 5 5 5 5 5 5 5 6
3 4 6 7 9 8 10 10 11 9 12 14 16 17 17 15 14 13 12 11 10 9 8 7 7 8 7 7 7 5 6 6 4 3 4 3 2 2 4 6 6 6 6 6 7 7 7 7 5
3 6 8 8 9 8 8 10 9 10 10 13 16 17 16 14 13 12 11 11 11 10 8 7 6 5 5 4 4 3 3 4 3 3 3 2 2 2 3 3 4 4 5 4 4 6 4 4 3
4 6 7 8 8 8 8 10 10 10 11 14 16 16 15 14 12 11 11 11 11 10 8 8 6 5 4 3 3 3 2 2 3 2 1 2 1 0 1 1 1 2 2 2 1 2 2 1 1
3 5 6 7 8 8 8 10 10 11 12 14 15 14 14 13 11 10 9 10 10 9 8 8 6 5 3 2 1 3 2 2 3 3 1 0 1 0 1 0 0 1 1 1 1 1 1 2 3
2 3 5 7 7 7 9 9 8 10 10 13 14 13 13 12 12 11 10 9 9 9 8 7 7 6 4 3 1 1 2 2 2 3 3 1 1 1 0 0 0 1 1 0 1 1 2 2 2
2 2 2 4 6 7 9 7 9 10 10 12 13 13 13 12 12 11 10 10 10 8 8 8 7 7 5 3 3 3 2 3 2 2 3 2 1 1 1 1 1 1 1 1 1 2 2 2 2
6 4 4 5 5 6 5 6 7 12 11 11 12 12 12 12 12 12 11 10 10 9 8 7 7 8 5 3 2 2 2 2 2 2 2 3 3 2 2 1 1 1 1 1 1 1 1 1 1
6 4 4 5 6 7 5 8 10 12 12 11 11 11 12 11 12 12 12 11 10 9 8 7 5 7 6 5 3 2 2 1 1 2 2 2 3 3 3 1 1 1 1 1 2 0 1 1 2
3 2 3 3 3 4 4 8 11 11 12 12 12 12 12 12 12 12 12 12 10 9 8 7 6 6 6 4 3 2 2 2 2 2 2 2 2 3 2 2 2 2 1 1 1 1 2 2 2
5 5 4 2 2 2 3 6 9 9 9 11 12 12 12 12 13 13 12 12 12 10 9 8 7 6 4 3 3 3 3 3 3 3 3 3 3 3 2 2 1 2 1 1 1 1 3 3 2
7 6 4 2 2 3 3 4 7 8 9 10 11 12 13 12 13 13 12 12 13 11 9 8 7 7 6 4 3 3 3 3 3 2 3 3 3 3 3 2 2 2 1 2 2 2 2 3 2
9 6 4 4 4 6 4 4 5 7 6 8 10 11 13 13 14 14 13 12 12 11 11 9 8 8 7 6 4 3 2 2 2 3 2 3 3 2 2 3 3 2 2 2 2 2 2 2 2
7 7 6 6 6 5 4 3 4 6 6 6 8 9 9 12 14 14 13 13 13 13 12 9 9 8 7 6 5 5 4 3 2 2 2 3 3 3 2 2 3 3 2 2 3 2 2 2 2
7 7 8 8 9 8 5 3 4 6 5 6 7 9 10 11 12 13 13 12 12 12 12 10 9 8 7 6 5 4 3 3 2 2 2 2 2 3 3 3 2 2 2 2 2 1 2 2 2
6 7 8 9 9 9 5 4 3 5 6 8 9 8 8 10 12 11 10 9 9 10 10 11 9 8 7 7 6 5 4 3 2 2 2 2 2 2 3 3 2 2 2 2 2 2 3 2 3
7 6 5 6 6 5 3 2 2 4 5 4 6 8 8 8 10 11 11 10 9 10 10 9 9 8 8 7 6 5 5 4 3 3 3 3 2 2 2 2 2 2 2 2 2 2 3 3 3
7 8 7 7 5 4 2 1 3 6 5 4 5 6 8 8 9 10 11 9 9 10 9 9 9 8 7 7 5 4 4 3 3 3 2 2 2 1 2 2 2 2 2 3 2 2 3 3 3
9 8 8 8 9 7 2 1 4 7 7 5 5 6 7 8 10 10 11 9 8 8 8 9 7 7 7 7 5 4 4 3 2 2 2 2 1 2 1 1 1 2 2 3 2 2 3 2 2
11 8 6 7 6 7 5 3 2 4 6 6 6 5 4 6 7 9 10 10 8 7 6 7 7 8 7 6 5 5 4 3 2 1 1 1 1 1 0 1 1 2 2 3 3 3 3 2 2
10 10 8 7 7 8 6 1 4 5 4 5 6 6 6 5 5 6 6 7 8 8 8 8 7 7 7 6 5 4 4 4 3 2 1 1 1 1 1 1 1 2 2 2 2 3 3 3 3
10 10 10 9 7 8 8 1 3 5 5 5 7 7 6 6 5 5 7 7 5 6 7 6 6 7 6 5 5 4 4 4 3 3 2 2 1 2 2 2 2 2 2 2 2 3 3 3 3
Wind_Direction
227 232 232 246 245 109 68 67 71 69 67 60 56 67 64 56 72 96 115 111 114 115 116 109 102 102 101 99 99 100 100 100 99 97 97 98 98 101 103 104 103 102 102 100 100 98 97 99 98
249 243 236 243 255 82 74 71 70 72 82 85 72 71 72 70 83 103 113 116 117 116 115 108 107 105 103 101 99 99 100 100 99 99 98 98 98 100 104 104 105 105 105 104 102 100 99 102 103
256 257 258 238 63 81 83 80 82 83 86 86 79 65 66 83 93 109 120 124 116 111 109 111 112 108 106 105 103 101 101 102 101 100 99 99 99 99 101 103 106 108 109 110 108 105 104 105 107
254 244 235 66 67 76 92 96 96 93 89 90 89 80 76 85 107 118 125 123 116 115 113 114 114 112 110 109 107 107 105 103 104 103 102 101 102 103 104 105 106 108 111 113 117 117 112 109 110
239 262 101 77 77 79 86 95 92 90 88 88 89 91 89 94 109 118 125 123 119 116 115 119 118 117 115 113 111 110 109 107 107 107 105 104 106 107 108 109 110 111 113 117 122 124 121 118 124
256 257 86 87 85 86 81 87 90 87 97 99 99 99 99 111 114 118 121 120 118 118 118 122 126 123 120 118 117 115 115 114 113 113 113 112 113 114 116 117 118 121 123 125 129 135 141 145 156
257 354 79 90 86 87 90 93 94 97 98 101 106 103 112 119 121 123 122 116 117 121 127 131 135 132 128 126 125 124 123 124 124 124 126 126 130 133 132 129 129 132 136 141 149 160 170 177 194
226 96 93 91 86 86 89 86 91 96 94 106 114 114 130 131 130 123 116 114 115 121 128 136 142 141 144 140 140 137 136 138 140 144 151 150 152 155 154 150 147 151 159 167 177 187 197 204 218
181 99 81 90 93 96 97 96 93 96 98 89 91 111 128 136 134 131 129 127 129 127 132 137 139 146 149 147 145 151 152 156 159 168 178 174 176 166 163 142 154 171 184 193 203 210 214 219 226
101 96 90 94 103 101 102 104 109 105 97 95 98 109 126 138 142 146 145 144 146 143 138 140 142 146 148 142 143 159 160 155 175 158 168 178 187 146 132 147 173 191 201 208 218 226 228 229 221
85 87 96 95 98 103 108 107 108 109 110 118 123 131 140 144 150 153 153 152 147 142 144 146 137 131 128 126 138 139 140 144 160 144 155 157 143 141 143 159 177 200 210 218 207 216 229 225 214
83 81 91 100 98 102 98 93 90 93 107 122 130 139 145 151 155 155 154 149 140 143 148 138 134 119 107 110 132 144 135 144 141 138 164 136 119 153 132 153 160 180 201 209 209 212 223 240 258
76 94 96 104 113 107 102 92 90 96 110 123 134 143 152 156 153 152 144 138 139 144 143 131 123 117 114 111 133 128 124 139 133 137 127 95 120 108 110 114 106 240 205 194 251 258 230 231 242
132 109 112 115 115 117 110 107 105 109 120 131 140 149 157 158 155 148 146 145 145 148 144 138 141 134 134 150 152 151 145 143 137 147 150 181 148 88 350 118 357 309 294 244 265 268 264 260 259
189 137 125 138 139 126 115 113 125 132 139 144 147 155 157 160 158 156 158 155 153 151 149 151 156 149 154 173 184 167 174 164 154 144 157 175 165 191 243 213 230 272 271 239 241 267 264 255 252
217 191 173 179 161 146 146 131 143 150 153 152 153 156 159 162 163 162 163 161 156 156 154 167 168 151 158 178 193 174 177 161 160 152 167 170 174 211 243 233 218 238 256 248 243 265 280 282 276
238 223 191 182 183 155 155 147 160 166 161 157 157 159 163 167 169 164 166 163 159 157 157 165 160 150 163 173 192 207 169 167 184 181 182 176 191 211 223 236 227 233 253 273 290 15 318 284 283
281 266 230 201 176 169 159 148 159 176 166 159 162 165 168 173 174 168 169 164 159 158 158 165 166 158 164 173 183 201 188 193 205 194 181 196 203 220 234 230 213 233 239 273 310 312 287 276 266
277 273 281 274 168 224 172 161 168 176 173 164 167 169 171 175 170 167 171 166 164 163 163 167 173 165 173 182 193 194 195 206 210 191 178 192 217 217 223 269 228 232 225 281 291 285 281 273 263
256 257 257 259 237 250 202 179 181 188 188 175 174 171 173 174 168 166 171 172 169 167 166 170 175 174 184 188 194 201 200 207 204 179 167 196 216 229 213 224 252 240 218 237 254 264 283 292 294
262 262 263 246 236 234 220 201 186 184 201 180 181 175 174 172 171 169 175 175 173 171 173 177 178 179 190 187 191 212 196 216 200 182 184 202 212 228 240 203 229 243 232 221 230 246 255 270 287
274 292 288 273 268 264 247 235 191 182 200 199 178 174 173 172 170 171 176 179 177 175 175 173 174 180 184 188 201 207 204 214 206 192 179 189 206 222 225 227 230 245 248 238 245 210 249 251 272
286 300 295 290 279 270 245 248 176 166 185 210 197 178 175 172 168 169 176 177 177 174 174 172 172 177 181 192 201 212 220 220 208 188 174 198 202 222 229 216 222 231 248 250 274 292 280 274 274
262 277 283 280 273 263 254 249 174 162 177 196 188 172 171 164 158 156 160 165 168 169 170 167 169 177 181 189 197 208 218 228 230 216 197 225 210 217 226 218 213 226 242 249 252 256 259 261 280
245 262 269 263 253 257 281 266 161 151 142 165 152 153 155 154 154 154 154 159 168 170 168 163 166 176 183 188 191 199 207 211 223 234 219 235 229 216 226 228 192 228 243 245 250 245 256 254 259
255 260 263 277 280 285 262 264 122 117 112 109 128 132 140 146 149 156 155 156 165 168 162 161 163 172 177 182 186 192 198 206 216 231 245 234 259 237 198 214 202 229 254 254 240 248 250 242 245
254 255 272 280 279 283 288 183 139 123 121 121 108 113 138 144 147 151 151 153 158 160 156 155 156 165 171 178 172 175 187 203 213 213 231 250 263 255 186 200 217 221 240 256 260 259 267 264 254
254 273 280 279 282 283 270 234 157 137 137 131 125 125 132 131 144 146 147 149 151 158 149 147 155 158 161 166 175 175 179 190 205 214 207 247 264 291 323 238 235 237 236 240 245 255 262 260 259
235 245 258 273 282 290 287 269 162 163 149 134 127 128 124 120 127 132 134 144 155 157 157 153 148 150 161 168 171 170 172 186 195 207 224 238 270 280 263 270 264 258 259 256 253 256 261 262 269
258 259 258 262 266 271 279 253 103 132 144 127 109 106 115 122 130 130 132 135 137 145 149 151 153 160 164 165 168 177 173 178 192 201 221 235 247 261 264 262 268 275 282 280 271 272 277 269 270